Location: Central Coast
(33.3208°S, 151.2336°E)
Time: 04:49:59
(UTC+11:00)

ISS - Pass Details

Date: 08 October 2017
Orbit: 401 x 408 km, 51.6° (Epoch: 22 October)

Event Time Altitude Azimuth Distance (km) Brightness Sun altitude
Exits shadow 04:38:31 11° 196° (SSW) 1,405 -1.0 -21.9°
Drops below altitude 10° 04:39:11 10° 184° (S) 1,490 -0.8 -21.8°
Sets 04:42:24 0° 151° (SSE) 2,356 0.9 -21.2°
